| time (UTC) | temp F | wind direction | speed MPH | gust MPH | rain 1hr in | rain 24hr in | rain mn in | humidity % | barometer mb |
| 20260831102517 | 75 | 133 | 1.0 | 4.0 | 0.00 | 0.00 | 0.00 | 87 | 1012.1 |
| 20260831101516 | 75 | 134 | 0.0 | 1.0 | 0.00 | 0.00 | 0.00 | 89 | 1012.0 |
| 20260831100517 | 75 | 162 | 1.0 | 6.0 | 0.00 | 0.00 | 0.00 | 89 | 1012.1 |
| 20260831095516 | 75 | 135 | 0.0 | 1.0 | 0.00 | 0.00 | 0.00 | 89 | 1012.1 |
| 20260831094516 | 76 | 127 | 0.0 | 1.0 | 0.00 | 0.00 | 0.00 | 87 | 1012.1 |
| 20260831093516 | 76 | 286 | 0.0 | 2.0 | 0.00 | 0.00 | 0.00 | 85 | 1012.0 |
| 20260831092516 | 75 | 269 | 1.0 | 2.0 | 0.00 | 0.00 | 0.00 | 86 | 1012.3 |
| 20260831091536 | 75 | 273 | 0.0 | 2.0 | 0.00 | 0.00 | 0.00 | 86 | 1012.7 |
| 20260831090536 | 75 | 0.0 | 2.0 | 0.00 | 0.00 | 0.00 | 85 | 1012.5 | |
| 20260831085516 | 75 | 322 | 1.0 | 4.0 | 0.00 | 0.00 | 0.00 | 82 | 1012.5 |
| 20260831084516 | 76 | 338 | 1.0 | 3.0 | 0.00 | 0.00 | 0.00 | 80 | 1012.5 |
| 20260831083516 | 76 | 133 | 0.0 | 2.0 | 0.00 | 0.00 | 0.00 | 85 | 1013.0 |
| 20260831082516 | 77 | 319 | 1.0 | 6.0 | 0.00 | 0.00 | 0.00 | 80 | 1013.1 |
| 20260831081517 | 78 | 273 | 1.0 | 5.0 | 0.00 | 0.00 | 0.00 | 77 | 1013.7 |
| 20260831080517 | 79 | 5 | 2.0 | 13.0 | 0.00 | 0.00 | 0.00 | 76 | 1012.6 |
| 20260831075516 | 83 | 345 | 6.0 | 16.0 | 0.00 | 0.00 | 0.00 | 65 | 1012.8 |
| 20260831074516 | 85 | 315 | 5.0 | 16.0 | 0.00 | 0.00 | 0.00 | 57 | 1013.5 |
| 20260831073517 | 85 | 353 | 5.0 | 16.0 | 0.00 | 0.00 | 0.00 | 57 | 1012.8 |
| 20260831072537 | 86 | 14 | 6.0 | 14.0 | 0.00 | 0.00 | 0.00 | 55 | 1012.4 |
| 20260831071517 | 86 | 347 | 4.0 | 10.0 | 0.00 | 0.00 | 0.00 | 51 | 1012.6 |
| 20260831070516 | 86 | 338 | 3.0 | 9.0 | 0.00 | 0.00 | 0.00 | 52 | 1012.8 |
| 20260831065657 | 86 | 12 | 4.0 | 12.0 | 0.00 | 0.00 | 0.00 | 52 | 1012.4 |
| 20260831064517 | 87 | 0 | 2.0 | 8.0 | 0.00 | 0.00 | 0.00 | 50 | 1012.5 |
| 20260831063516 | 87 | 347 | 2.0 | 10.0 | 0.00 | 0.00 | 0.00 | 50 | 1012.1 |
| 20260831062516 | 87 | 52 | 1.0 | 6.0 | 0.00 | 0.00 | 0.00 | 51 | 1012.0 |
| 20260831061517 | 88 | 23 | 2.0 | 7.0 | 0.00 | 0.00 | 0.00 | 48 | 1011.8 |
| 20260831060516 | 90 | 2 | 3.0 | 11.0 | 0.00 | 0.00 | 0.00 | 43 | 1011.6 |
| 20260831055516 | 91 | 289 | 5.0 | 10.0 | 0.00 | 0.00 | 0.00 | 40 | 1011.1 |
| 20260831054517 | 91 | 287 | 4.0 | 9.0 | 0.00 | 0.00 | 0.00 | 39 | 1010.9 |
| 20260831053516 | 90 | 276 | 4.0 | 10.0 | 0.00 | 0.00 | 0.00 | 42 | 1011.0 |
| 20260831052516 | 89 | 276 | 4.0 | 13.0 | 0.00 | 0.00 | 0.00 | 44 | 1011.2 |
| 20260831051516 | 89 | 275 | 6.0 | 14.0 | 0.00 | 0.00 | 0.00 | 42 | 1011.2 |
| 20260831050517 | 89 | 265 | 5.0 | 14.0 | 0.00 | 0.00 | 0.00 | 45 | 1011.3 |
| 20260831045516 | 88 | 274 | 8.0 | 17.0 | 0.00 | 0.00 | 0.00 | 49 | 1011.3 |
| 20260831044516 | 88 | 274 | 8.0 | 20.0 | 0.00 | 0.00 | 0.00 | 49 | 1011.1 |
| 20260831043516 | 88 | 264 | 9.0 | 23.0 | 0.00 | 0.00 | 0.00 | 49 | 1011.2 |
| 20260831042516 | 90 | 266 | 6.0 | 19.0 | 0.00 | 0.00 | 0.00 | 49 | 1011.3 |
| 20260831041515 | 91 | 258 | 6.0 | 20.0 | 0.00 | 0.00 | 0.00 | 46 | 1011.0 |
| 20260831040516 | 92 | 241 | 7.0 | 16.0 | 0.00 | 0.00 | 0.00 | 43 | 1011.0 |
| 20260831035516 | 92 | 209 | 7.0 | 17.0 | 0.00 | 0.00 | 0.00 | 43 | 1011.0 |
| 20260831034515 | 94 | 240 | 7.0 | 19.0 | 0.00 | 0.00 | 0.00 | 40 | 1010.8 |
| 20260831033536 | 97 | 211 | 6.0 | 13.0 | 0.00 | 0.00 | 0.00 | 36 | 1010.6 |
| 20260831032537 | 98 | 151 | 0.0 | 2.0 | 0.00 | 0.00 | 0.00 | 36 | 1010.3 |
| 20260831031516 | 98 | 147 | 0.0 | 1.0 | 0.00 | 0.00 | 0.00 | 36 | 1009.9 |
| 20260831030516 | 98 | 132 | 0.0 | 3.0 | 0.00 | 0.00 | 0.00 | 35 | 1009.7 |
| 20260831025516 | 98 | 136 | 1.0 | 3.0 | 0.00 | 0.00 | 0.00 | 35 | 1009.5 |
| 20260831024515 | 98 | 129 | 0.0 | 1.0 | 0.00 | 0.00 | 0.00 | 34 | 1009.3 |
| 20260831023536 | 99 | 131 | 0.0 | 3.0 | 0.00 | 0.00 | 0.00 | 34 | 1009.3 |
| 20260831022515 | 100 | 0.0 | 0.0 | 0.00 | 0.00 | 0.00 | 32 | 1009.2 | |
| 20260831021518 | 100 | 290 | 0.0 | 2.0 | 0.00 | 0.00 | 0.00 | 31 | 1008.7 |
| 20260831020515 | 100 | 288 | 0.0 | 2.0 | 0.00 | 0.00 | 0.00 | 31 | 1008.6 |
| 20260831015516 | 101 | 322 | 1.0 | 3.0 | 0.00 | 0.00 | 0.00 | 31 | 1008.5 |
| 20260831014515 | 101 | 321 | 0.0 | 4.0 | 0.00 | 0.00 | 0.00 | 30 | 1008.5 |
| 20260831013515 | 102 | 302 | 1.0 | 4.0 | 0.00 | 0.00 | 0.00 | 30 | 1008.3 |
| 20260831012517 | 102 | 322 | 1.0 | 4.0 | 0.00 | 0.00 | 0.00 | 29 | 1008.3 |
| 20260831011515 | 102 | 326 | 2.0 | 6.0 | 0.00 | 0.00 | 0.00 | 29 | 1008.2 |
| 20260831010537 | 103 | 298 | 2.0 | 5.0 | 0.00 | 0.00 | 0.00 | 29 | 1008.3 |
| 20260831005516 | 103 | 327 | 2.0 | 8.0 | 0.00 | 0.00 | 0.00 | 28 | 1008.4 |
| 20260831004515 | 104 | 273 | 1.0 | 5.0 | 0.00 | 0.00 | 0.00 | 27 | 1008.5 |
| 20260831003516 | 104 | 181 | 1.0 | 4.0 | 0.00 | 0.00 | 0.00 | 28 | 1008.5 |
| 20260831002515 | 105 | 280 | 2.0 | 8.0 | 0.00 | 0.00 | 0.00 | 27 | 1008.6 |
| 20260831001536 | 105 | 48 | 1.0 | 3.0 | 0.00 | 0.00 | 0.00 | 27 | 1008.6 |
| 20260831000535 | 105 | 195 | 0.0 | 2.0 | 0.00 | 0.00 | 0.00 | 28 | 1008.7 |
| 20260830235536 | 105 | 261 | 1.0 | 5.0 | 0.00 | 0.00 | 0.00 | 28 | 1008.7 |
| 20260830234516 | 105 | 163 | 1.0 | 5.0 | 0.00 | 0.00 | 0.00 | 27 | 1008.8 |
| 20260830233516 | 105 | 266 | 2.0 | 7.0 | 0.00 | 0.00 | 0.00 | 28 | 1008.9 |
| 20260830232517 | 103 | 124 | 1.0 | 4.0 | 0.00 | 0.00 | 0.00 | 30 | 1009.0 |
| 20260830231516 | 104 | 135 | 2.0 | 8.0 | 0.00 | 0.00 | 0.00 | 29 | 1009.1 |
| 20260830230535 | 104 | 120 | 2.0 | 5.0 | 0.00 | 0.00 | 0.00 | 30 | 1009.3 |
| 20260830225516 | 103 | 133 | 1.0 | 5.0 | 0.00 | 0.00 | 0.00 | 30 | 1009.5 |
| 20260830224516 | 104 | 284 | 0.0 | 3.0 | 0.00 | 0.00 | 0.00 | 30 | 1009.6 |
| 20260830223516 | 104 | 26 | 1.0 | 4.0 | 0.00 | 0.00 | 0.00 | 30 | 1009.9 |
| 20260830222515 | 104 | 297 | 0.0 | 4.0 | 0.00 | 0.00 | 0.00 | 29 | 1010.0 |
| 20260830221516 | 103 | 112 | 0.0 | 4.0 | 0.00 | 0.00 | 0.00 | 30 | 1010.2 |
| 20260830220515 | 102 | 57 | 1.0 | 7.0 | 0.00 | 0.00 | 0.00 | 31 | 1010.4 |
| 20260830215515 | 102 | 330 | 3.0 | 8.0 | 0.00 | 0.00 | 0.00 | 32 | 1010.6 |
| 20260830214516 | 103 | 8 | 0.0 | 3.0 | 0.00 | 0.00 | 0.00 | 31 | 1010.8 |
| 20260830213536 | 102 | 67 | 0.0 | 4.0 | 0.00 | 0.00 | 0.00 | 32 | 1011.0 |
| 20260830212516 | 101 | 332 | 2.0 | 7.0 | 0.00 | 0.00 | 0.00 | 33 | 1011.2 |
| 20260830211516 | 102 | 248 | 1.0 | 5.0 | 0.00 | 0.00 | 0.00 | 32 | 1011.4 |
| 20260830210515 | 102 | 122 | 2.0 | 7.0 | 0.00 | 0.00 | 0.00 | 32 | 1011.7 |
| 20260830205516 | 103 | 138 | 2.0 | 7.0 | 0.00 | 0.00 | 0.00 | 32 | 1011.9 |
| 20260830204515 | 102 | 106 | 2.0 | 5.0 | 0.00 | 0.00 | 0.00 | 33 | 1012.0 |
| 20260830203516 | 102 | 130 | 3.0 | 8.0 | 0.00 | 0.00 | 0.00 | 33 | 1012.2 |
| 20260830202516 | 101 | 130 | 2.0 | 6.0 | 0.00 | 0.00 | 0.00 | 33 | 1012.3 |
| 20260830201515 | 101 | 51 | 2.0 | 11.0 | 0.00 | 0.00 | 0.00 | 34 | 1012.4 |
| 20260830200536 | 101 | 63 | 2.0 | 7.0 | 0.00 | 0.00 | 0.00 | 34 | 1012.6 |
| 20260830195515 | 101 | 113 | 2.0 | 6.0 | 0.00 | 0.00 | 0.00 | 34 | 1012.7 |
| 20260830194515 | 101 | 147 | 3.0 | 6.0 | 0.00 | 0.00 | 0.00 | 34 | 1012.9 |
| 20260830193516 | 101 | 37 | 0.0 | 3.0 | 0.00 | 0.00 | 0.00 | 34 | 1013.0 |
| 20260830192515 | 100 | 133 | 0.0 | 2.0 | 0.00 | 0.00 | 0.00 | 35 | 1013.1 |
| 20260830191616 | 99 | 273 | 1.0 | 5.0 | 0.00 | 0.00 | 0.00 | 37 | 1013.4 |
| 20260830190535 | 100 | 285 | 1.0 | 6.0 | 0.00 | 0.00 | 0.00 | 36 | 1013.6 |
| 20260830185556 | 98 | 102 | 1.0 | 7.0 | 0.00 | 0.00 | 0.00 | 38 | 1013.7 |
| 20260830184515 | 98 | 148 | 2.0 | 8.0 | 0.00 | 0.00 | 0.00 | 37 | 1013.9 |
| 20260830183515 | 98 | 281 | 1.0 | 5.0 | 0.00 | 0.00 | 0.00 | 38 | 1014.1 |
| 20260830182536 | 98 | 160 | 2.0 | 7.0 | 0.00 | 0.00 | 0.00 | 38 | 1014.2 |
| 20260830181515 | 97 | 117 | 4.0 | 9.0 | 0.00 | 0.00 | 0.00 | 40 | 1014.3 |
| 20260830180555 | 95 | 138 | 2.0 | 9.0 | 0.00 | 0.00 | 0.00 | 41 | 1014.5 |
| 20260830175515 | 95 | 126 | 3.0 | 7.0 | 0.00 | 0.00 | 0.00 | 42 | 1014.6 |
| 20260830174515 | 94 | 126 | 3.0 | 7.0 | 0.00 | 0.00 | 0.00 | 43 | 1014.7 |
| 20260830173515 | 93 | 135 | 3.0 | 9.0 | 0.00 | 0.00 | 0.00 | 44 | 1014.8 |
| 20260830172516 | 93 | 127 | 4.0 | 10.0 | 0.00 | 0.00 | 0.00 | 45 | 1014.8 |
| 20260830171515 | 93 | 124 | 4.0 | 11.0 | 0.00 | 0.00 | 0.00 | 45 | 1014.9 |
| 20260830170515 | 92 | 133 | 2.0 | 7.0 | 0.00 | 0.00 | 0.00 | 48 | 1014.9 |
| 20260830165515 | 91 | 135 | 3.0 | 8.0 | 0.00 | 0.00 | 0.00 | 48 | 1014.8 |
| 20260830164515 | 92 | 138 | 3.0 | 7.0 | 0.00 | 0.00 | 0.00 | 46 | 1014.9 |
| 20260830163515 | 92 | 145 | 2.0 | 5.0 | 0.00 | 0.00 | 0.00 | 46 | 1014.8 |
| 20260830162515 | 92 | 122 | 2.0 | 6.0 | 0.00 | 0.00 | 0.00 | 45 | 1014.9 |
| 20260830161515 | 91 | 136 | 2.0 | 7.0 | 0.00 | 0.00 | 0.00 | 46 | 1015.0 |
| 20260830160535 | 91 | 140 | 2.0 | 6.0 | 0.00 | 0.00 | 0.00 | 46 | 1014.9 |
| 20260830155517 | 90 | 132 | 3.0 | 8.0 | 0.00 | 0.00 | 0.00 | 46 | 1014.9 |
| 20260830154517 | 90 | 137 | 3.0 | 9.0 | 0.00 | 0.00 | 0.00 | 47 | 1015.0 |
| 20260830153517 | 89 | 130 | 3.0 | 9.0 | 0.00 | 0.00 | 0.00 | 48 | 1015.0 |
| 20260830152514 | 89 | 131 | 3.0 | 7.0 | 0.00 | 0.00 | 0.00 | 48 | 1015.1 |
| 20260830151517 | 88 | 129 | 3.0 | 7.0 | 0.00 | 0.00 | 0.00 | 50 | 1015.0 |
| 20260830150535 | 87 | 116 | 3.0 | 9.0 | 0.00 | 0.00 | 0.00 | 51 | 1015.0 |
| 20260830145516 | 86 | 138 | 2.0 | 6.0 | 0.00 | 0.00 | 0.00 | 54 | 1015.2 |
| 20260830144537 | 85 | 133 | 3.0 | 7.0 | 0.00 | 0.00 | 0.00 | 55 | 1015.3 |
| 20260830143516 | 85 | 132 | 2.0 | 6.0 | 0.00 | 0.00 | 0.00 | 56 | 1015.3 |
| 20260830142517 | 84 | 133 | 2.0 | 5.0 | 0.00 | 0.00 | 0.00 | 57 | 1015.2 |
| 20260830141517 | 84 | 135 | 2.0 | 6.0 | 0.00 | 0.00 | 0.00 | 57 | 1015.2 |
| 20260830140516 | 83 | 128 | 2.0 | 6.0 | 0.00 | 0.00 | 0.00 | 58 | 1015.0 |
| 20260830135516 | 83 | 135 | 2.0 | 8.0 | 0.00 | 0.00 | 0.00 | 57 | 1014.7 |
| 20260830134517 | 83 | 142 | 3.0 | 11.0 | 0.00 | 0.00 | 0.00 | 57 | 1014.5 |
| 20260830133516 | 83 | 134 | 4.0 | 11.0 | 0.00 | 0.00 | 0.00 | 57 | 1014.4 |
| 20260830132516 | 82 | 132 | 4.0 | 9.0 | 0.00 | 0.00 | 0.00 | 58 | 1014.2 |
| 20260830131516 | 82 | 130 | 6.0 | 10.0 | 0.00 | 0.00 | 0.00 | 57 | 1014.1 |
| 20260830130517 | 82 | 125 | 2.0 | 6.0 | 0.00 | 0.00 | 0.00 | 60 | 1013.8 |
| 20260830125516 | 82 | 98 | 2.0 | 6.0 | 0.00 | 0.00 | 0.00 | 59 | 1013.6 |
| 20260830124516 | 82 | 118 | 3.0 | 6.0 | 0.00 | 0.00 | 0.00 | 60 | 1013.5 |
| 20260830123517 | 81 | 95 | 3.0 | 7.0 | 0.00 | 0.00 | 0.00 | 62 | 1013.4 |
| 20260830122516 | 81 | 102 | 3.0 | 6.0 | 0.00 | 0.00 | 0.00 | 62 | 1013.3 |
| 20260830121516 | 81 | 130 | 3.0 | 7.0 | 0.00 | 0.00 | 0.00 | 61 | 1013.3 |
| 20260830120517 | 82 | 128 | 4.0 | 7.0 | 0.00 | 0.00 | 0.00 | 59 | 1013.4 |
| 20260830115516 | 82 | 135 | 3.0 | 7.0 | 0.00 | 0.00 | 0.00 | 57 | 1013.2 |
| 20260830114516 | 83 | 142 | 2.0 | 5.0 | 0.00 | 0.00 | 0.00 | 56 | 1013.1 |
| 20260830113517 | 83 | 133 | 2.0 | 7.0 | 0.00 | 0.00 | 0.00 | 56 | 1013.2 |
| 20260830112516 | 83 | 129 | 3.0 | 8.0 | 0.00 | 0.00 | 0.00 | 55 | 1013.2 |
| 20260830111516 | 83 | 127 | 3.0 | 10.0 | 0.00 | 0.00 | 0.00 | 55 | 1013.2 |
| 20260830110517 | 83 | 132 | 3.0 | 9.0 | 0.00 | 0.00 | 0.00 | 55 | 1013.0 |
| 20260830105516 | 83 | 128 | 3.0 | 7.0 | 0.00 | 0.00 | 0.00 | 56 | 1013.0 |
| 20260830104516 | 83 | 131 | 3.0 | 6.0 | 0.00 | 0.00 | 0.00 | 57 | 1013.1 |
| 20260830103517 | 82 | 135 | 2.0 | 4.0 | 0.00 | 0.00 | 0.00 | 59 | 1013.0 |